Weather History for KMFV - February, 2014

Change the Weather History Date:

Monday, February 17, 2014

  Actual Average (KWAL) Record (KWAL)
Temperature  
Mean Temperature 36 °F 39 °F  
Max Temperature 39 °F 47 °F 79 °F (1976)
Min Temperature 32 °F 31 °F 7 °F (1979)
Degree Days  
Heating Degree Days 30    
Month to date heating degree days  
Since 1 July heating degree days  
Cooling Degree Days 0    
Month to date cooling degree days  
Year to date cooling degree days  
Moisture  
Dew Point 20 °F    
Average Humidity 53    
Maximum Humidity 65    
Minimum Humidity 38    
Precipitation  
Precipitation 0.00 in 0.10 in 1.12 in ()
Month to date precipitation 1.61  
Year to date precipitation 4.65  
Sea Level Pressure  
Sea Level Pressure 30.35 in    
Wind  
Wind Speed 9 mph (North)    
Max Wind Speed 15 mph    
Max Gust Speed 25 mph    
Visibility 10 miles    
Events      
T = Trace of Precipitation, MM = Missing Value Source: NWS Daily Summary

Daily Weather History Graph

Daily Weather History Graph

Search for Another Location

Airport or City:

Trip Planner

Search our weather history database for the weather conditions in past years. The results will help you decide how hot, cold, wet, or windy it might be!

Date:

Astronomy

Feb. 17, 2014 Rise Set
Actual Time 6:50 AM EST 5:44 PM EST
Civil Twilight 6:23 AM EST 6:11 PM EST
Nautical Twilight 5:52 AM EST 6:41 PM EST
Astronomical Twilight 5:22 AM EST 7:12 PM EST
Moon 8:32 PM EST (2/17) 7:53 AM EST (2/17)
Length of Visible Light 11h 47m
Length of Day
10h 54m
Waning Gibbous, 93% of the Moon is Illuminated
Feb 17
Waning Gibbous
Feb 22
Last Quarter
Mar 1
New
Mar 8
First Quarter
Mar 16
Full

Hourly Weather History & Observations

Time (EST) Temp. Windchill Dew Point Humidity Pressure Visibility Wind Dir Wind Speed Gust Speed Precip Events Conditions
12:15 AM 37.4 °F 29.3 °F 24.8 °F 60% 30.19 in 10.0 mi NNW 12.7 mph 18.4 mph N/A   Mostly Cloudy
12:36 AM 37.4 °F 29.8 °F 24.8 °F 60% 30.20 in 10.0 mi NNW 11.5 mph 18.4 mph N/A   Scattered Clouds
12:55 AM 35.6 °F 26.6 °F 24.8 °F 65% 30.21 in 10.0 mi North 13.8 mph 18.4 mph N/A   Clear
1:15 AM 35.6 °F 29.2 °F 24.8 °F 65% 30.22 in 10.0 mi North 8.1 mph 18.4 mph N/A   Unknown
1:35 AM 35.6 °F 27.5 °F 24.8 °F 65% 30.23 in 10.0 mi North 11.5 mph 17.3 mph N/A   Clear
1:55 AM 35.6 °F 28.0 °F 24.8 °F 65% 30.23 in 10.0 mi North 10.4 mph 17.3 mph N/A   Clear
2:15 AM 35.6 °F 28.0 °F 24.8 °F 65% 30.24 in 10.0 mi North 10.4 mph 20.7 mph N/A   Clear
2:35 AM 35.6 °F 27.1 °F 23.0 °F 60% 30.25 in 10.0 mi NNW 12.7 mph 21.9 mph N/A   Clear
2:55 AM 35.6 °F 27.5 °F 23.0 °F 60% 30.25 in 10.0 mi North 11.5 mph 25.3 mph N/A   Clear
3:15 AM 35.6 °F 26.2 °F 23.0 °F 60% 30.26 in 10.0 mi North 15.0 mph 23.0 mph N/A   Clear
3:36 AM 35.6 °F 28.0 °F 21.2 °F 56% 30.27 in 10.0 mi NNW 10.4 mph 18.4 mph N/A   Clear
3:55 AM 33.8 °F 25.3 °F 21.2 °F 60% 30.29 in 10.0 mi NNW 11.5 mph 18.4 mph N/A   Clear
4:15 AM 33.8 °F 26.4 °F 21.2 °F 60% 30.29 in 10.0 mi North 9.2 mph - N/A   Clear
4:35 AM 33.8 °F 26.4 °F 19.4 °F 56% 30.30 in 10.0 mi North 9.2 mph 17.3 mph N/A   Scattered Clouds
4:55 AM 33.8 °F 25.8 °F 19.4 °F 56% 30.31 in 10.0 mi North 10.4 mph 17.3 mph N/A   Mostly Cloudy
5:16 AM 33.8 °F 28.6 °F 19.4 °F 56% 30.32 in 10.0 mi North 5.8 mph - N/A   Mostly Cloudy
5:35 AM 33.8 °F 27.0 °F 17.6 °F 52% 30.33 in 10.0 mi North 8.1 mph 17.3 mph N/A   Scattered Clouds
5:55 AM 33.8 °F 26.4 °F 17.6 °F 52% 30.34 in 10.0 mi NNW 9.2 mph 16.1 mph N/A   Scattered Clouds
6:16 AM 33.8 °F 27.0 °F 17.6 °F 52% 30.34 in 10.0 mi NNW 8.1 mph - N/A   Clear
6:36 AM 33.8 °F 27.7 °F 19.4 °F 56% 30.35 in 10.0 mi NNW 6.9 mph - N/A   Clear
6:55 AM 32.0 °F 25.6 °F 17.6 °F 55% 30.36 in 10.0 mi NNW 6.9 mph - N/A   Clear
7:15 AM 33.8 °F 25.8 °F 17.6 °F 52% 30.37 in 10.0 mi NNW 10.4 mph - N/A   Clear
7:35 AM 33.8 °F 25.8 °F 17.6 °F 52% 30.37 in 10.0 mi NNW 10.4 mph 17.3 mph N/A   Clear
7:55 AM 33.8 °F 25.3 °F 19.4 °F 56% 30.39 in 10.0 mi NNW 11.5 mph 16.1 mph N/A   Clear
8:15 AM 33.8 °F 26.4 °F 21.2 °F 60% 30.39 in 10.0 mi North 9.2 mph 18.4 mph N/A   Scattered Clouds
8:35 AM 35.6 °F 27.5 °F 21.2 °F 56% 30.39 in 10.0 mi North 11.5 mph 16.1 mph N/A   Scattered Clouds
8:55 AM 35.6 °F 27.5 °F 21.2 °F 56% 30.41 in 10.0 mi North 11.5 mph - N/A   Scattered Clouds
9:15 AM 33.8 °F 24.3 °F 21.2 °F 60% 30.42 in 10.0 mi North 13.8 mph 18.4 mph N/A   Scattered Clouds
9:35 AM 35.6 °F 26.6 °F 21.2 °F 56% 30.42 in 10.0 mi NNE 13.8 mph 20.7 mph N/A   Clear
9:55 AM 35.6 °F 27.5 °F 21.2 °F 56% 30.41 in 10.0 mi North 11.5 mph 16.1 mph N/A   Clear
10:15 AM 35.6 °F 27.1 °F 19.4 °F 52% 30.42 in 10.0 mi North 12.7 mph 19.6 mph N/A   Clear
10:35 AM 35.6 °F 29.9 °F 17.6 °F 48% 30.43 in 10.0 mi North 6.9 mph 16.1 mph N/A   Clear
10:56 AM 35.6 °F 29.2 °F 19.4 °F 52% 30.43 in 10.0 mi North 8.1 mph 17.3 mph N/A   Clear
11:15 AM 35.6 °F 26.6 °F 17.6 °F 48% 30.44 in 10.0 mi NNW 13.8 mph 18.4 mph N/A   Clear
11:36 AM 35.6 °F 27.5 °F 17.6 °F 48% 30.43 in 10.0 mi North 11.5 mph - N/A   Clear
11:55 AM 35.6 °F 29.2 °F 17.6 °F 48% 30.42 in 10.0 mi NW 8.1 mph - N/A   Clear
12:15 PM 37.4 °F 30.8 °F 17.6 °F 45% 30.42 in 10.0 mi NW 9.2 mph 16.1 mph N/A   Clear
12:35 PM 37.4 °F 32.1 °F 17.6 °F 45% 30.41 in 10.0 mi North 6.9 mph - N/A   Clear
12:55 PM 37.4 °F 32.8 °F 17.6 °F 45% 30.39 in 10.0 mi North 5.8 mph - N/A   Clear
1:15 PM 37.4 °F 32.1 °F 17.6 °F 45% 30.39 in 10.0 mi NW 6.9 mph - N/A   Clear
1:35 PM 37.4 °F 30.3 °F 17.6 °F 45% 30.39 in 10.0 mi NW 10.4 mph - N/A   Clear
1:55 PM 37.4 °F 31.4 °F 17.6 °F 45% 30.39 in 10.0 mi NNW 8.1 mph - N/A   Clear
2:15 PM 37.4 °F 30.8 °F 17.6 °F 45% 30.39 in 10.0 mi NW 9.2 mph - N/A   Clear
2:35 PM 37.4 °F 32.8 °F 15.8 °F 41% 30.38 in 10.0 mi NNW 5.8 mph - N/A   Clear
2:55 PM 37.4 °F 32.1 °F 15.8 °F 41% 30.39 in 10.0 mi WNW 6.9 mph - N/A   Clear
3:15 PM 37.4 °F 32.8 °F 14.0 °F 38% 30.38 in 10.0 mi NW 5.8 mph - N/A   Clear
3:35 PM 39.2 °F - 15.8 °F 39% 30.37 in 10.0 mi Calm Calm - N/A   Clear
3:55 PM 37.4 °F 33.8 °F 15.8 °F 41% 30.37 in 10.0 mi North 4.6 mph - N/A   Clear
4:15 PM 37.4 °F 34.9 °F 14.0 °F 38% 30.37 in 10.0 mi North 3.5 mph - N/A   Clear
4:35 PM 37.4 °F - 15.8 °F 41% 30.37 in 10.0 mi Calm Calm - N/A   Clear
4:58 PM 37.4 °F - 17.6 °F 45% 30.37 in 10.0 mi Calm Calm - N/A   Clear
5:15 PM 37.4 °F 33.8 °F 19.4 °F 48% 30.37 in 10.0 mi ENE 4.6 mph - N/A   Clear
5:35 PM 35.6 °F 31.7 °F 17.6 °F 48% 30.37 in 10.0 mi SE 4.6 mph - N/A   Clear
5:55 PM 35.6 °F 32.8 °F 17.6 °F 48% 30.38 in 10.0 mi ESE 3.5 mph - N/A   Clear
6:15 PM 33.8 °F - 17.6 °F 52% 30.38 in 10.0 mi Calm Calm - N/A   Clear
6:35 PM 33.8 °F - 17.6 °F 52% 30.38 in 10.0 mi Calm Calm - N/A   Clear
6:56 PM 32.0 °F 28.7 °F 17.6 °F 55% 30.37 in 10.0 mi SE 3.5 mph - N/A   Clear
7:15 PM 32.0 °F - 17.6 °F 55% 30.38 in 10.0 mi Calm Calm - N/A   Clear
7:35 PM 32.0 °F - 19.4 °F 60% 30.38 in 10.0 mi Calm Calm - N/A   Clear
7:55 PM 32.0 °F - 19.4 °F 60% 30.38 in 10.0 mi Calm Calm - N/A   Clear
8:15 PM 32.0 °F - 21.2 °F 64% 30.38 in 10.0 mi Calm Calm - N/A   Clear
8:37 PM 33.8 °F 30.8 °F 21.2 °F 60% 30.38 in 10.0 mi SE 3.5 mph - N/A   Scattered Clouds
8:55 PM 33.8 °F 30.8 °F 21.2 °F 60% 30.37 in 10.0 mi SSE 3.5 mph - N/A   Scattered Clouds
9:15 PM 33.8 °F - 21.2 °F 60% 30.37 in 10.0 mi Calm Calm - N/A   Scattered Clouds
9:35 PM 35.6 °F - 21.2 °F 56% 30.35 in 10.0 mi Calm Calm - N/A   Scattered Clouds
9:55 PM 35.6 °F - 21.2 °F 56% 30.35 in 10.0 mi Calm Calm - N/A   Clear
10:15 PM 35.6 °F - 21.2 °F 56% 30.34 in 10.0 mi Calm Calm - N/A   Clear
10:37 PM 35.6 °F 31.7 °F 21.2 °F 56% 30.32 in 10.0 mi SE 4.6 mph - N/A   Clear
10:55 PM 37.4 °F 32.8 °F 19.4 °F 48% 30.30 in 10.0 mi SE 5.8 mph - N/A   Clear
11:15 PM 37.4 °F 32.8 °F 21.2 °F 52% 30.28 in 10.0 mi SE 5.8 mph - N/A   Clear
11:35 PM 37.4 °F 32.8 °F 24.8 °F 60% 30.26 in 10.0 mi SE 5.8 mph - N/A   Clear
11:55 PM 37.4 °F 33.8 °F 26.6 °F 65% 30.24 in 10.0 mi ESE 4.6 mph - N/A   Clear